Weather History for Rickenbacker, OH

Change the Weather History Date:

Friday, June 28, 2013

  Actual Average Record
Temperature  
Mean Temperature 75 °F -  
Max Temperature 84 °F 83 °F 100 °F (2012)
Min Temperature 66 °F 63 °F 57 °F (2003)
Cooling Degree Days 10    
Growing Degree Days 25 (Base 50)    
Moisture  
Dew Point 61 °F    
Average Humidity 65    
Maximum Humidity 84    
Minimum Humidity 37    
Precipitation  
Precipitation 0.00 in - - ()
Sea Level Pressure  
Sea Level Pressure 29.62 in    
Wind  
Wind Speed 6 mph (West)    
Max Wind Speed 18 mph    
Max Gust Speed 30 mph    
Visibility 10 miles    
Events Rain , Thunderstorm    
Averages and records for this station are not official NWS values.
T = Trace of Precipitation, MM = Missing Value Source: NWS Daily Summary

Daily Weather History Graph

Daily Weather History Graph

Search for Another Location

Airport:

Trip Planner

Search our weather history database for the weather conditions in past years. The results will help you decide how hot, cold, wet, or windy it might be!

Date:

Astronomy

Jun. 28, 2013 Rise Set
Actual Time 6:05 AM EDT 9:04 PM EDT
Civil Twilight 5:33 AM EDT 9:36 PM EDT
Nautical Twilight 4:51 AM EDT 10:17 PM EDT
Astronomical Twilight 4:03 AM EDT 11:05 PM EDT
Moon 12:01 AM EDT (6/28) 12:11 PM EDT (6/28)
Length of Visible Light 16h 03m
Length of Day
14h 58m
Waning Gibbous, 66% of the Moon is Illuminated
Jun 28
Waning Gibbous
Jun 30
Last Quarter
Jul 8
New
Jul 15
First Quarter
Jul 22
Full

Hourly Weather History & Observations

Time (EDT) Temp. Heat Index Dew Point Humidity Pressure Visibility Wind Dir Wind Speed Gust Speed Precip Events Conditions
12:15 AM 73.2 °F - 66.2 °F 79% 29.68 in 10.0 mi SW 5.8 mph - N/A   Clear
12:35 AM 72.5 °F - 66.0 °F 80% 29.68 in 10.0 mi SW 3.5 mph - N/A   Scattered Clouds
12:55 AM 72.1 °F - 65.8 °F 80% 29.68 in 10.0 mi SW 4.6 mph - N/A   Mostly Cloudy
1:15 AM 72.5 °F - 66.0 °F 80% 29.67 in 10.0 mi Calm Calm - N/A   Mostly Cloudy
1:35 AM 74.5 °F - 65.8 °F 74% 29.68 in 10.0 mi West 3.5 mph - N/A   Mostly Cloudy
1:55 AM 74.7 °F - 65.8 °F 74% 29.66 in 10.0 mi SSW 6.9 mph - N/A Rain Light Rain
2:15 AM 73.4 °F - 66.2 °F 78% 29.67 in 10.0 mi WSW 4.6 mph - N/A   Overcast
2:35 AM 72.5 °F - 65.8 °F 80% 29.65 in 10.0 mi West 4.6 mph - N/A Thunderstorm Scattered Clouds
2:55 AM 72.3 °F - 65.1 °F 78% 29.65 in 10.0 mi West 4.6 mph - N/A Thunderstorm Scattered Clouds
3:15 AM 72.3 °F - 64.9 °F 78% 29.65 in 10.0 mi SW 5.8 mph - N/A   Mostly Cloudy
3:35 AM 71.8 °F - 64.9 °F 79% 29.64 in 10.0 mi SW 6.9 mph - N/A   Overcast
3:55 AM 71.8 °F - 63.9 °F 76% 29.64 in 10.0 mi WSW 3.5 mph - N/A   Overcast
4:15 AM 70.5 °F - 63.7 °F 79% 29.63 in 10.0 mi Calm Calm - N/A   Overcast
4:35 AM 70.2 °F - 64.0 °F 81% 29.63 in 10.0 mi Calm Calm - N/A   Overcast
4:55 AM 69.3 °F - 64.0 °F 83% 29.63 in 10.0 mi South 3.5 mph - N/A   Mostly Cloudy
5:15 AM 68.4 °F - 63.0 °F 83% 29.63 in 10.0 mi South 4.6 mph - N/A   Mostly Cloudy
5:35 AM 68.2 °F - 61.9 °F 80% 29.63 in 10.0 mi Calm Calm - N/A   Scattered Clouds
5:55 AM 68.0 °F - 61.7 °F 80% 29.63 in 10.0 mi Calm Calm - N/A   Clear
6:15 AM 67.1 °F - 61.5 °F 82% 29.63 in 10.0 mi SSW 4.6 mph - N/A   Scattered Clouds
6:35 AM 66.4 °F - 61.3 °F 84% 29.63 in 10.0 mi SSW 4.6 mph - N/A   Clear
6:55 AM 67.1 °F - 62.1 °F 84% 29.63 in 10.0 mi SSW 3.5 mph - N/A   Clear
7:15 AM 68.4 °F - 63.0 °F 83% 29.63 in 10.0 mi SSW 3.5 mph - N/A   Clear
7:35 AM 70.0 °F - 63.9 °F 81% 29.63 in 10.0 mi SW 4.6 mph - N/A   Clear
7:55 AM 71.2 °F - 64.6 °F 79% 29.63 in 10.0 mi WSW 4.6 mph - N/A   Clear
8:55 AM 74.8 °F - 65.7 °F 73% 29.63 in 10.0 mi WNW 8.1 mph - N/A   Overcast
9:15 AM 75.2 °F - 65.7 °F 72% 29.63 in 10.0 mi NW 8.1 mph - N/A   Overcast
9:35 AM 76.6 °F - 65.7 °F 69% 29.62 in 10.0 mi NW 8.1 mph - N/A   Scattered Clouds
9:55 AM 78.3 °F - 64.9 °F 63% 29.62 in 10.0 mi WNW 12.7 mph 18.4 mph N/A   Scattered Clouds
10:15 AM 78.4 °F - 64.2 °F 62% 29.62 in 10.0 mi WNW 10.4 mph - N/A   Mostly Cloudy
10:35 AM 79.2 °F - 64.9 °F 62% 29.62 in 10.0 mi West 9.2 mph - N/A   Mostly Cloudy
10:55 AM 79.7 °F - 64.9 °F 61% 29.62 in 10.0 mi WNW 10.4 mph - N/A   Mostly Cloudy
11:15 AM 81.0 °F 82.6 °F 64.4 °F 57% 29.62 in 10.0 mi WNW 11.5 mph 18.4 mph N/A   Scattered Clouds
11:35 AM 81.7 °F 83.2 °F 64.2 °F 55% 29.62 in 10.0 mi WNW 12.7 mph - N/A   Scattered Clouds
11:55 AM 81.9 °F 83.1 °F 63.1 °F 53% 29.62 in 10.0 mi WNW 12.7 mph - N/A   Scattered Clouds
12:15 PM 82.9 °F 84.2 °F 63.5 °F 52% 29.61 in 10.0 mi West 9.2 mph - N/A   Scattered Clouds
12:35 PM 83.8 °F 84.7 °F 63.0 °F 49% 29.60 in 10.0 mi West 13.8 mph - N/A   Scattered Clouds
12:55 PM 82.6 °F 83.2 °F 61.5 °F 49% 29.60 in 10.0 mi West 15.0 mph 19.6 mph N/A   Scattered Clouds
1:15 PM 80.2 °F 81.4 °F 62.1 °F 54% 29.61 in 10.0 mi WNW 9.2 mph - N/A   Mostly Cloudy
1:35 PM 75.4 °F - 63.1 °F 66% 29.63 in 3.0 mi West 12.7 mph 27.6 mph N/A Rain , Thunderstorm Light Thunderstorms and Rain
1:55 PM 70.9 °F - 62.4 °F 75% 29.61 in 10.0 mi West 10.4 mph - N/A Thunderstorm Mostly Cloudy
2:15 PM 72.3 °F - 60.4 °F 66% 29.61 in 10.0 mi WSW 10.4 mph - N/A   Scattered Clouds
2:35 PM 76.8 °F - 62.1 °F 60% 29.59 in 10.0 mi West 9.2 mph - N/A   Clear
2:55 PM 79.5 °F - 62.2 °F 55% 29.60 in 10.0 mi NW 3.5 mph - N/A   Scattered Clouds
3:15 PM 77.9 °F - 61.0 °F 56% 29.59 in 10.0 mi South 6.9 mph 16.1 mph N/A   Mostly Cloudy
3:35 PM 75.7 °F - 60.8 °F 60% 29.59 in 10.0 mi South 5.8 mph - N/A Rain , Thunderstorm Light Thunderstorms and Rain
3:55 PM 75.4 °F - 62.2 °F 64% 29.58 in 10.0 mi SE 4.6 mph - N/A Thunderstorm Overcast
4:15 PM 76.5 °F - 63.3 °F 64% 29.57 in 10.0 mi South 4.6 mph - N/A   Mostly Cloudy
4:35 PM 79.3 °F - 63.7 °F 59% 29.57 in 10.0 mi SSW 5.8 mph - N/A   Mostly Cloudy
4:55 PM 81.5 °F 82.5 °F 62.2 °F 52% 29.56 in 10.0 mi WNW 16.1 mph 21.9 mph N/A   Scattered Clouds
5:15 PM 84.2 °F 83.3 °F 56.7 °F 39% 29.56 in 10.0 mi WNW 15.0 mph 21.9 mph N/A   Scattered Clouds
5:35 PM 83.8 °F 82.7 °F 55.2 °F 37% 29.56 in 10.0 mi WNW 18.4 mph 25.3 mph N/A   Clear
5:55 PM 81.3 °F 80.9 °F 55.0 °F 40% 29.57 in 10.0 mi WNW 16.1 mph 25.3 mph N/A   Scattered Clouds
6:15 PM 79.9 °F - 56.1 °F 44% 29.58 in 10.0 mi West 17.3 mph 29.9 mph N/A   Scattered Clouds
6:35 PM 77.9 °F - 56.3 °F 47% 29.58 in 10.0 mi West 12.7 mph - N/A   Clear
6:55 PM 76.8 °F - 54.1 °F 45% 29.58 in 10.0 mi WNW 11.5 mph - N/A   Clear
7:15 PM 75.4 °F - 54.3 °F 48% 29.59 in 10.0 mi WNW 8.1 mph - N/A   Clear
7:35 PM 75.0 °F - 55.4 °F 50% 29.59 in 10.0 mi WNW 5.8 mph - N/A   Scattered Clouds
7:55 PM 75.0 °F - 55.4 °F 50% 29.61 in 10.0 mi West 10.4 mph - N/A   Scattered Clouds
8:15 PM 73.9 °F - 55.2 °F 52% 29.60 in 10.0 mi West 12.7 mph - N/A   Scattered Clouds
8:35 PM 74.1 °F - 54.3 °F 50% 29.60 in 10.0 mi WNW 6.9 mph - N/A   Clear
8:55 PM 74.3 °F - 54.0 °F 49% 29.61 in 10.0 mi WNW 8.1 mph - N/A   Scattered Clouds
9:15 PM 73.0 °F - 53.8 °F 51% 29.61 in 10.0 mi West 5.8 mph - N/A   Clear
9:35 PM 71.6 °F - 55.0 °F 56% 29.61 in 10.0 mi NW 5.8 mph - N/A   Clear
9:55 PM 71.1 °F - 55.0 °F 57% 29.61 in 10.0 mi WNW 8.1 mph - N/A   Clear
10:15 PM 70.5 °F - 55.2 °F 58% 29.61 in 10.0 mi WNW 4.6 mph - N/A   Clear
10:35 PM 69.8 °F - 55.9 °F 61% 29.61 in 10.0 mi Calm Calm - N/A   Clear
10:55 PM 68.9 °F - 56.3 °F 64% 29.61 in 10.0 mi WSW 4.6 mph - N/A   Clear
11:15 PM 67.1 °F - 56.7 °F 69% 29.61 in 10.0 mi WSW 3.5 mph - N/A   Scattered Clouds
11:35 PM 66.7 °F - 57.0 °F 71% 29.61 in 10.0 mi Calm Calm - N/A   Clear
11:55 PM 66.9 °F - 57.2 °F 71% 29.61 in 10.0 mi Calm Calm - N/A   Clear